This is the latest recevied weather packets stored in our database for station/object EA5AFP-10. If no packets are shown the sender has not sent any weather packets the latest 1 day(s).
| Time | Temp. | Humidity | Pressure | Rain* | Wind** | Luminosity | Snow |
|---|---|---|---|---|---|---|---|
| 1777994033 | 22.22° C | 7% | - | 0 mm | 2.24 m/s, 90° | - | - |
| 1777993849 | 22.22° C | 6% | - | 0 mm | 3.58 m/s, 90° | - | - |
| 1777993558 | 23.33° C | 6% | - | 0 mm | 3.13 m/s, 67° | - | - |
| 1777993526 | 23.33° C | 6% | - | 0 mm | 3.13 m/s, 67° | - | - |
| 1777993270 | 23.33° C | 6% | - | 0 mm | 2.24 m/s, 112° | - | - |
| 1777993021 | 21.67° C | 6% | - | 0 mm | 3.13 m/s, 112° | - | - |
| 1777993019 | 21.67° C | 6% | - | 0 mm | 3.13 m/s, 112° | - | - |
| 1777992889 | 22.22° C | 6% | - | 0 mm | 2.68 m/s, 90° | - | - |
| 1777992846 | 22.22° C | 6% | - | 0 mm | 2.68 m/s, 90° | - | - |
| 1777992607 | 21.67° C | 6% | - | 0 mm | 4.92 m/s, 112° | - | - |
| 1777992359 | 22.22° C | 6% | - | 0 mm | 4.47 m/s, 112° | - | - |
| 1777992261 | 22.22° C | 6% | - | 0 mm | 4.02 m/s, 90° | - | - |
| 1777992066 | 22.78° C | 6% | - | 0 mm | 4.02 m/s, 90° | - | - |
| 1777991775 | 23.33° C | 5% | - | 0 mm | 4.47 m/s, 112° | - | - |
| 1777991744 | 23.33° C | 5% | - | 0 mm | 4.47 m/s, 112° | - | - |
| 1777991487 | 22.78° C | 5% | - | 0 mm | 5.36 m/s, 112° | - | - |
| 1777991235 | 23.33° C | 5% | - | 0 mm | 3.13 m/s, 90° | - | - |
| 1777991087 | 23.33° C | 5% | - | 0 mm | 4.02 m/s, 67° | - | - |
| 1777991017 | 23.89° C | 5% | - | 0 mm | 4.02 m/s, 90° | - | - |
| 1777990733 | 23.89° C | 5% | - | 0 mm | 3.13 m/s, 112° | - | - |
| 1777990533 | 23.89° C | 5% | - | 0 mm | 4.02 m/s, 90° | - | - |
| 1777990491 | 23.89° C | 5% | - | 0 mm | 1.79 m/s, 90° | - | - |
| 1777990213 | 23.33° C | 5% | - | 0 mm | 4.92 m/s, 67° | - | - |
| 1777989932 | 23.33° C | 5% | - | 0 mm | 2.68 m/s, 90° | - | - |
| 1777989673 | 23.89° C | 5% | - | 0 mm | 1.79 m/s, 90° | - | - |
* Rain latest hour (hover to see other rain measurements)
** Current wind speed in m/s (hover to see current wind gust speed)